TimeMST,TemperatureF,Dew PointF,Humidity,Sea Level PressureIn,VisibilityMPH,Wind Direction,Wind SpeedMPH,Gust SpeedMPH,PrecipitationIn,Events,Conditions,WindDirDegrees,DateUTC
12:53 AM,25.0,15.1,66,29.94,10.0,WNW,9.2,-,N/A,,Clear,300,2013-01-07 07:53:00
1:53 AM,25.0,16.0,69,29.95,10.0,WNW,5.8,-,N/A,,Clear,290,2013-01-07 08:53:00
2:53 AM,26.1,16.0,66,29.98,10.0,West,11.5,-,N/A,,Clear,260,2013-01-07 09:53:00
3:53 AM,30.9,16.0,54,29.97,10.0,WNW,11.5,-,N/A,,Clear,290,2013-01-07 10:53:00
4:53 AM,27.0,15.1,61,30.01,10.0,NNW,8.1,-,N/A,,Clear,330,2013-01-07 11:53:00
5:53 AM,28.9,15.1,56,30.03,10.0,NNW,10.4,-,N/A,,Clear,340,2013-01-07 12:53:00
6:53 AM,30.0,15.1,54,30.04,10.0,NNW,15.0,-,N/A,,Clear,340,2013-01-07 13:53:00
7:53 AM,32.0,12.9,45,30.06,10.0,North,19.6,-,N/A,,Clear,350,2013-01-07 14:53:00
8:53 AM,37.9,14.0,38,30.06,10.0,North,8.1,-,N/A,,Clear,350,2013-01-07 15:53:00
9:53 AM,41.0,15.1,35,30.07,10.0,North,9.2,-,N/A,,Clear,360,2013-01-07 16:53:00
10:53 AM,41.0,15.1,35,30.06,10.0,NNW,5.8,-,N/A,,Clear,340,2013-01-07 17:53:00
12:53 PM,45.0,16.0,31,29.99,10.0,Variable,3.5,-,N/A,,Clear,0,2013-01-07 19:53:00
1:53 PM,46.0,15.1,29,29.96,10.0,Calm,Calm,-,N/A,,Clear,0,2013-01-07 20:53:00
2:53 PM,45.0,16.0,31,29.95,10.0,ESE,6.9,-,N/A,,Clear,120,2013-01-07 21:53:00
4:53 PM,30.0,21.9,72,29.98,10.0,SSE,9.2,-,N/A,,Clear,160,2013-01-07 23:53:00
5:53 PM,28.9,21.0,72,29.98,10.0,South,8.1,-,N/A,,Clear,170,2013-01-08 00:53:00
6:53 PM,27.0,19.9,75,29.97,10.0,South,6.9,-,N/A,,Clear,180,2013-01-08 01:53:00
7:53 PM,28.9,21.0,72,29.93,10.0,SSW,10.4,-,N/A,,Clear,200,2013-01-08 02:53:00
8:53 PM,27.0,19.0,72,29.90,10.0,SSW,3.5,-,N/A,,Clear,200,2013-01-08 03:53:00
9:53 PM,23.0,17.1,78,29.89,10.0,West,5.8,-,N/A,,Clear,260,2013-01-08 04:53:00
10:53 PM,21.0,15.1,78,29.88,10.0,SW,10.4,-,N/A,,Clear,230,2013-01-08 05:53:00
11:53 PM,23.0,14.0,68,29.83,10.0,SW,9.2,-,N/A,,Clear,230,2013-01-08 06:53:00